铱星星座 173星 (IRIDIUM 173)

导读

IRIDIUM 173是美国于2019年1月11日发射的新一代低轨道通信卫星,隶属于铱星卫星通信系统。该系统由美国主导构建,旨在提供全球覆盖的移动通信服务,可在偏远地区、海洋、极地等场景实现稳定语音与数据传输。作为铱星星座组网卫星之一,IRIDIUM 173补充增强了系统网络容量,延续了低轨通信低时延、广覆盖的技术优势,支撑全球全天候无缝卫星通信服务,提升了极端环境下的通信保障能力。

基本信息
目录编号:
43925
目录名称:
IRIDIUM 173
国际标识:
2019-002D
轨道中心:
EARTH
卫星名称:
铱星星座 173星
卫星全名:
铱星星座 173星 (IRIDIUM 173)
卫星状态:
在轨 (已飞行2800 天)
发射日期:
2019-01-11 UTC
国别 :
美国 (US)
星等 :
--
轨道信息
数据来源 国际轨道数据
星历时间: 2026-09-10T22:00:03+0800
12小时前
查看轨道信息
半长轴: 7155.805km
偏心率: 0.0002286
轨道倾角: 86.399°
近地点辐角 94.269°
升交点赤经 317.886°
平近点角 265.877°
近地点: 776.032km
远地点: 779.304km
周期: 100.403分钟
每日圈数: 14.342175
详细信息
平衡模式:
三轴稳定
覆盖范围:
全球
运营商:
铱星通信公司
运营商所在国:
美国
制造商(研发单位):
阿莱尼亚宇航公司
制造商所在国:
意大利
使用方式:
暂无
卫星简介
铱星(Iridium)是由共66个运作中的通信卫星组成的卫星通信系统。这个系统原本规划77个通信卫星,所以用原子序数为77的铱元素来命名。铱卫星允许人们使用手持型电子设备进行全球性的语音及数据通讯。该卫星仍在工作。
2D轨道图
3D轨道图
轨道高度分析图
轨道倾角分析图
轨道综合分析图
查看轨道综合分析图
交会数据列表
事件ID 空间交会对象 最接近时刻(TCA) 交会距离 交会风险概率(CRP) 交会风险指数(CRI) 操作
CDM_260911-191203-967104-392525
2026-09-11T
19:12:07+0000
2.055 km
极远距离
2.624893E-6 低风险 0.43
CDM_260910-153703-967604-392528
2026-09-10T
15:37:04+0000
2.199 km
极远距离
2.241477E-6 低风险 0.42
CDM_260912-001301-448004-392523
2026-09-12T
00:13:08+0000
2.408 km
极远距离
1.887927E-6 低风险 0.41
CDM_260911-050203-963804-392528
2026-09-11T
05:02:20+0000
2.657 km
极远距离
1.562323E-6 低风险 0.39
与全量物体交会距离演化趋势
与全量物体交会风险概率演化趋势